Theta_e
285 286 286 286 286 286 286 286 286 286 285 285 285 285 284 284 284 284 284 283 283 283 283 283 282 283 283 283 283 282 282 281 279 282 284 285 284 284 284 285 285 284 285
286 286 285 286 285 285 285 286 286 285 285 285 285 284 284 284 284 283 283 282 282 282 283 282 282 282 282 283 282 282 282 282 280 278 281 282 283 284 284 283 283 283 283
285 285 285 285 285 285 285 285 285 285 285 284 284 283 283 283 283 283 283 283 282 283 282 282 282 282 282 282 282 282 282 281 282 280 280 282 283 284 283 283 283 283 283
285 284 284 284 284 285 285 285 284 284 283 283 284 283 283 283 282 282 282 282 282 282 282 282 282 282 282 282 282 282 282 281 280 280 279 280 281 282 282 280 280 283 282
284 284 284 284 285 285 284 284 284 283 283 282 281 281 281 281 282 282 282 282 282 282 283 282 282 282 281 281 281 280 280 280 280 280 280 280 280 280 279 281 280 281 282
284 283 284 284 283 283 283 282 282 282 282 281 280 279 279 281 281 282 283 282 282 281 280 280 280 280 280 280 280 280 280 279 278 278 278 277 277 278 279 278 278 276 275
283 283 283 282 282 281 282 281 280 280 280 277 276 276 277 280 280 281 280 280 279 278 277 277 277 278 277 277 278 279 279 279 280 279 277 277 276 278 278 277 277 277 276
281 281 281 281 279 279 279 278 277 276 275 274 273 274 276 278 279 279 277 278 276 276 275 275 275 275 275 276 277 277 277 278 278 278 278 278 278 277 276 275 274 275 276
278 277 277 277 276 275 273 273 273 273 272 271 271 271 272 273 277 277 276 275 274 273 274 274 274 273 274 276 275 274 276 277 278 278 276 276 276 276 275 273 270 270 269
273 273 273 274 273 271 271 270 271 271 271 270 269 269 269 271 275 275 275 274 272 273 273 273 273 273 274 275 275 273 270 271 273 272 270 271 271 271 272 271 270 268 268
270 270 270 270 270 270 269 269 269 269 269 268 268 268 268 268 271 273 274 273 272 272 271 271 272 273 274 276 276 272 271 272 271 267 267 267 268 268 269 269 269 268 266
268 268 268 268 269 269 268 268 268 268 267 267 267 267 268 268 269 271 272 272 273 271 270 271 271 273 274 274 273 272 272 270 266 265 264 264 264 265 266 266 266 266 266
265 265 266 267 267 267 267 267 267 267 267 266 266 266 266 267 268 269 270 271 272 271 271 272 273 272 271 269 269 269 267 264 263 262 262 262 263 264 264 264 264 265 265
263 264 264 264 265 266 266 267 266 266 266 266 266 265 265 266 266 268 270 270 271 270 271 269 268 268 267 267 265 265 263 262 261 260 261 262 263 262 262 262 262 262 262
263 263 263 263 263 264 265 265 265 267 267 266 266 265 264 264 266 269 270 269 269 270 269 265 264 264 263 262 262 261 261 261 260 260 260 260 260 260 260 261 261 261 259
261 261 261 261 261 261 261 261 266 266 267 267 267 266 266 267 268 269 269 269 270 270 264 261 261 260 259 259 259 259 259 258 259 259 258 258 258 258 258 259 260 259 258
260 259 259 260 259 259 259 259 258 260 262 263 263 264 265 265 266 267 267 268 267 265 259 258 258 257 257 257 257 257 257 258 258 257 257 257 257 257 257 257 258 258 257
258 258 258 258 257 257 257 256 256 255 255 256 259 260 262 262 264 265 265 264 258 258 257 256 255 256 256 256 256 256 256 256 256 256 256 256 256 256 256 256 257 256 256
257 256 256 255 255 255 255 255 254 254 254 253 254 256 256 259 261 262 261 256 254 254 255 255 255 255 255 255 255 255 255 255 255 255 255 256 256 256 256 256 256 256 256
255 254 254 254 254 254 253 253 254 253 253 252 253 253 253 255 256 255 255 254 254 254 254 254 254 254 254 254 255 255 255 255 255 255 256 256 256 256 256 256 256 256 256
254 253 253 254 253 253 252 252 252 251 251 251 252 253 258 256 253 252 252 253 253 253 253 253 253 253 254 254 254 254 254 254 255 255 255 256 256 255 256 257 257 256 256
254 253 252 252 252 252 251 251 251 251 251 250 251 252 255 251 251 251 252 252 252 253 253 252 252 253 253 253 253 253 253 253 254 255 255 255 256 256 256 256 255 256 256
252 252 252 252 251 249 251 251 250 250 250 250 250 250 250 250 251 251 251 251 251 252 252 252 252 252 253 253 254 254 253 253 254 255 255 255 255 255 255 255 255 255 255
252 252 251 251 250 250 250 250 250 248 249 249 249 250 249 250 250 250 250 250 251 251 251 251 251 251 251 252 253 254 255 255 256 256 256 255 254 255 255 255 255 255 256
251 251 250 250 249 249 248 249 249 249 249 249 249 249 249 249 249 249 250 250 249 249 250 250 250 251 251 251 251 252 253 255 255 255 256 256 256 256 256 256 256 256 256
250 250 250 249 249 249 248 248 248 248 247 248 248 248 248 248 248 248 249 248 248 248 249 249 250 250 250 251 251 253 254 257 257 257 258 259 258 258 259 258 258 258 258
Wind_Speed
16 15 14 13 12 10 10 10 10 10 10 10 9 8 7 6 6 5 4 4 4 3 3 3 4 4 4 4 4 5 6 6 10 10 9 10 13 14 13 12 12 13 12
16 15 14 13 12 12 11 10 10 10 9 10 9 8 8 7 6 6 5 5 5 5 5 5 6 4 6 6 6 8 8 8 9 15 11 11 14 14 15 16 11 11 13
15 15 14 14 13 13 12 11 10 9 7 8 8 8 8 7 6 6 5 5 5 5 6 6 6 6 7 7 7 8 8 7 9 11 11 11 11 11 13 13 14 14 11
15 16 15 15 14 13 12 11 10 9 8 7 5 5 4 4 5 4 4 5 5 5 5 6 7 7 8 8 8 9 9 9 10 10 12 11 10 11 11 11 11 11 12
15 15 14 14 13 12 11 11 10 9 8 6 6 4 3 3 2 3 3 4 5 5 4 4 6 6 9 10 8 10 10 10 9 10 11 11 10 9 10 10 13 13 12
14 14 12 12 12 11 11 10 10 8 8 7 6 6 5 3 3 3 4 3 2 2 4 4 5 6 7 11 12 15 14 11 12 11 11 12 14 12 12 12 13 14 17
12 12 12 12 11 10 10 10 10 10 10 9 8 7 7 6 5 5 5 3 1 3 3 4 5 5 7 8 11 15 14 16 18 14 15 14 16 14 15 16 15 14 15
11 11 11 11 11 11 11 11 11 10 10 9 8 7 7 6 7 6 7 4 3 3 4 4 5 7 8 10 11 10 11 11 12 10 14 13 12 14 14 14 16 17 15
12 11 11 12 12 12 12 11 10 11 10 9 8 8 8 6 8 7 5 3 3 3 3 3 5 7 12 17 12 12 12 10 10 18 15 23 26 27 24 14 13 14 15
12 12 12 11 14 13 12 11 10 11 11 9 9 8 8 6 8 8 6 3 4 4 4 5 7 8 16 17 12 7 9 11 13 12 12 15 18 18 25 15 12 13 13
12 13 13 13 14 13 13 11 10 11 10 9 9 8 8 7 7 9 9 4 4 5 6 6 6 16 18 19 19 10 13 18 15 11 12 12 12 11 10 10 11 11 13
14 14 13 13 11 10 13 11 10 10 10 8 7 6 5 6 9 8 9 9 10 7 8 7 9 19 20 21 18 21 23 20 9 10 10 10 11 10 11 11 13 13 13
15 14 13 13 11 11 11 11 9 8 7 6 5 5 4 4 4 8 10 11 11 9 8 15 19 19 19 14 16 19 16 9 9 10 10 10 10 11 14 13 13 14 15
15 13 11 11 11 10 8 8 8 7 6 5 4 4 3 4 4 5 7 8 11 11 15 6 9 12 13 13 10 10 8 8 9 10 10 10 10 11 10 10 12 12 12
13 12 11 10 11 10 9 7 7 7 6 4 3 3 4 5 6 13 13 9 10 13 12 4 7 8 10 10 9 9 8 8 9 10 10 10 10 11 10 10 11 11 13
12 10 9 8 8 7 6 6 12 11 10 10 9 8 6 11 15 18 20 21 23 22 6 8 9 10 10 10 10 10 9 10 9 10 10 11 10 10 11 11 11 11 12
12 11 8 8 7 6 6 5 4 5 7 9 11 13 13 14 17 19 21 22 16 13 6 8 9 9 9 9 9 10 11 10 11 10 10 11 11 10 13 11 10 11 11
12 12 8 7 6 6 6 5 3 4 5 6 10 12 12 17 18 19 19 14 8 8 7 8 8 8 9 9 9 10 10 10 10 10 10 10 10 11 11 11 11 12 12
9 8 7 7 6 6 4 4 3 3 4 5 7 7 10 17 17 14 13 7 9 8 8 8 8 8 9 9 9 10 10 10 10 10 10 10 10 10 11 11 12 16 16
9 11 8 5 5 4 4 3 3 3 4 5 6 7 8 10 9 9 9 8 8 8 8 9 9 9 9 9 10 10 10 10 10 10 10 10 10 10 11 12 12 13 13
6 6 6 4 4 3 2 3 3 3 5 6 7 7 17 10 8 8 8 8 8 9 10 10 9 9 9 10 10 10 10 10 10 10 10 10 10 11 12 12 12 13 13
5 4 3 3 2 2 2 2 3 4 5 6 7 8 16 7 7 8 9 9 9 10 9 10 9 9 9 10 10 10 10 10 10 10 11 11 11 12 11 12 13 12 12
3 3 2 2 2 2 3 3 4 4 6 7 7 7 7 8 8 9 9 10 9 9 9 9 10 9 9 9 10 10 10 11 11 11 12 12 12 12 12 12 13 13 12
2 3 3 3 2 3 3 4 5 5 6 7 8 8 8 8 9 10 9 9 9 10 9 9 9 13 12 11 10 10 10 11 11 12 17 14 13 14 12 13 13 15 14
2 1 1 2 2 3 4 5 6 6 7 7 8 8 9 9 9 10 10 9 8 9 11 10 9 13 15 17 17 19 19 21 18 18 13 16 18 19 16 14 15 15 17
1 2 2 3 3 4 4 5 6 7 7 8 8 8 9 9 10 10 9 9 9 9 12 10 12 17 18 16 18 20 21 21 19 21 16 14 15 14 13 15 18 13 16
Wind_Direction
187 187 188 190 192 192 193 190 186 178 174 174 177 177 175 175 178 190 200 198 218 219 220 239 251 253 262 261 258 258 258 255 267 276 282 289 289 292 291 293 294 293 291
185 186 189 188 185 188 191 189 185 185 181 180 179 181 183 186 189 205 214 220 233 242 250 246 256 259 262 267 268 269 265 268 271 280 284 287 282 289 291 292 289 287 285
180 184 187 188 187 191 189 186 183 179 177 178 181 186 185 189 198 211 222 237 244 254 260 265 271 270 275 275 273 279 283 280 279 282 285 283 283 287 289 291 291 288 284
181 186 187 189 189 189 184 182 180 180 174 177 175 178 176 184 198 209 226 240 253 261 268 273 279 276 281 292 292 288 289 287 287 285 286 283 281 282 280 282 278 273 282
183 186 189 187 187 182 178 176 173 176 177 168 161 150 143 166 195 209 221 236 256 269 273 289 287 298 297 288 288 288 290 283 284 284 284 289 291 299 299 298 290 293 284
183 187 183 179 175 176 172 168 165 159 147 139 130 131 129 115 141 184 200 226 241 283 302 308 299 299 305 310 304 299 293 293 288 290 293 292 291 290 298 292 291 287 289
175 176 171 167 165 164 158 152 147 139 128 114 108 109 104 99 93 95 88 91 60 26 351 324 320 325 322 319 305 297 293 289 286 292 293 294 296 297 291 288 285 283 284
157 155 151 141 130 128 125 125 121 117 113 108 99 96 95 71 76 82 86 76 61 23 338 328 325 331 327 316 306 308 300 293 290 287 289 301 323 326 322 318 312 303 294
129 124 124 127 122 122 116 113 114 112 105 100 96 89 89 57 64 58 69 49 14 342 333 335 331 326 317 312 305 296 298 301 324 327 333 324 319 314 310 307 300 300 292
109 108 103 110 114 109 111 109 106 105 106 104 94 82 71 64 43 40 50 20 350 331 317 312 314 317 313 308 301 336 322 316 313 322 318 312 310 300 303 298 296 291 294
101 97 94 94 100 103 103 100 103 103 102 98 94 83 71 49 29 25 17 8 329 328 314 312 317 311 306 311 321 328 314 315 326 315 310 301 300 300 300 299 298 295 295
95 92 90 93 96 100 99 98 97 100 97 93 92 84 61 40 16 9 2 346 332 326 313 314 304 302 322 317 320 312 309 321 315 304 302 301 303 304 304 306 301 296 282
92 89 89 89 91 95 97 97 91 84 84 81 73 63 42 20 359 344 338 331 327 318 313 299 316 316 313 312 302 310 318 309 302 299 297 296 298 302 302 298 299 297 288
96 92 89 90 88 83 84 82 82 76 76 72 63 47 15 352 345 326 323 326 319 314 303 327 306 306 300 302 305 309 308 305 305 295 294 298 298 299 299 305 302 302 302
93 92 89 83 82 82 78 83 81 61 64 76 59 31 353 338 329 321 324 320 310 301 325 317 310 311 310 308 308 308 309 311 307 303 301 299 299 297 302 307 297 305 300
94 88 87 89 87 86 93 86 62 55 51 42 30 12 347 327 325 324 316 313 310 316 339 318 312 308 304 309 311 312 312 307 306 306 302 297 298 303 303 301 303 296 303
97 99 97 94 92 89 78 65 47 13 33 30 14 358 342 335 325 318 315 311 335 337 309 302 298 301 303 306 304 304 304 305 308 293 296 299 299 300 302 299 298 301 297
89 91 93 89 85 80 71 66 49 23 354 339 344 336 340 333 325 319 319 337 325 319 301 295 295 298 299 299 300 299 300 300 299 298 298 298 296 295 297 296 298 299 299
92 85 83 80 72 73 71 60 38 7 335 317 321 325 338 334 329 333 344 322 309 304 302 298 299 298 298 299 298 295 293 293 298 296 292 292 291 293 293 294 293 296 297
85 88 81 80 74 63 51 35 4 339 324 321 321 326 327 317 322 330 320 316 306 302 304 304 302 298 296 295 294 293 293 294 295 293 293 292 291 290 293 294 294 296 295
94 84 77 76 69 62 39 9 348 327 322 321 311 308 305 327 318 311 310 308 307 307 306 303 301 298 295 293 292 291 291 292 291 289 290 292 293 292 290 288 291 292 292
85 86 77 64 49 31 10 345 339 318 304 300 302 303 315 312 303 304 305 305 303 299 297 295 293 292 290 291 293 292 289 287 288 288 290 290 292 292 294 292 291 290 290
82 77 80 77 39 13 346 334 308 302 302 299 301 301 304 305 304 301 299 299 298 296 295 292 290 287 288 285 283 282 281 281 283 288 291 294 292 289 288 289 288 287 287
58 39 31 24 5 331 311 308 305 294 294 299 301 301 300 297 295 296 294 294 296 296 294 287 285 290 292 287 283 281 279 281 283 285 289 289 286 286 281 280 281 282 283
53 34 345 323 312 306 300 305 303 300 299 297 296 295 296 295 294 294 296 296 292 291 290 291 286 291 292 289 284 283 280 283 284 279 277 274 273 276 274 276 279 280 279
6 301 302 303 302 303 300 299 298 296 292 293 293 294 295 296 294 296 296 291 290 290 294 289 289 290 291 289 287 285 286 285 287 283 275 273 276 278 276 277 278 279 282